CZ-6A DEB

Satellite information

Favourite Embed

Satellite Type and Status

DEBRISIN ORBIT

Key statistics

Satellite CZ-6A DEB at a glance.

Uptime

395

Days in orbit

Revolutions

≈ 14.3

Per day

Orbit

LEO

Low Earth Orbit

Inclination

89.0

Latest

Satellite identification and parameters

Extended collection of information and parameters for CZ-6A DEB.

Object identification

Identified? True

Debris? True

Object name: CZ-6A DEB

International designator: 2024-140AAV

Object number (NORAD): 61487

Object ID (CCSDS): 61487

Country: PEOPLES REPUBLIC OF CHINA (PRC)

Current information (Y/N): Y

RCS size: SMALL

Orbital parameters

Period: 101.016 minutes

Inclination: 89.0154 deg

SMA: 7184.912 km

Apoapsis: 835.074 km

Periapsis: 778.479 km

RAAN: 307.2523 deg

Eccentricy: 0.00393842

Argument of periapsis: 59.5714 deg

Mean anomaly: 300.9361 deg

Mean motion: 14.2551117 rev/day

Mean motion (dot): 0.00004341 rev/day2

B* drag term: 0.0018162836 1/REarth

Two-line elements (TLE)

Creation date: Sept. 4, 2025, 10:13 a.m.

Reference frame: TEME

Reference center: EARTH

Epoch: Sept. 4, 2025, 2:48 a.m. UTC

TLE line 0: 0 CZ-6A DEB

TLE line 1: 1 61487U 24140AAV 25247.11719119 .00004341 00000-0 18163-2 0 9990

TLE line 2: 2 61487 89.0154 307.2523 0039384 59.5714 300.9361 14.25511170 51099

Live tracking on map

Real-time ground track for satellite CZ-6A DEB.

In-orbit conjunctions

A list of the most updated potential collisions computed for object CZ-6A DEB.

Target Orbit TCA Probability of collision Miss distance Type
NOAA 16 DEB SSO 2025-03-15 16:40:38 0.0001056418 40.0 (m) DEBRIS
DELTA 1 DEB SSO 2024-12-26 17:10:24 0.0001065129 383.0 (m) DEBRIS
METEOR 1-5 DEB LEO 2024-12-19 08:57:27 0.001595228 72.0 (m) DEBRIS

Associated space launch

18 Low Earth Orbit communication satellites with Ku, Q and V band payloads for the G60 constellation operated by Shanghai Spacecom Satellite Technology (SSST) with funding backed by the Shanghai local government. Initial constellation will consist of 1296 satellites by 2027 with long term plans to expand it to 12000 satellites.

CZ-6A DEB was lifted into orbit during the mission ‘Long March 6A | G60 Polar Group 01’, on board a Long March 6A space rocket.

The launch took place on Aug. 6, 2024, 6:42 a.m. from Launch Complex 9A.

For more information about the launch, click the button.

Launch to space Long March 6A | G60 Polar Group 01
Long March 6A | G60 Polar Group 01

Agency: N/A

Status: Launch Successful

Launch date: Aug. 6, 2024, 6:42 a.m. UTC

Rocket: Long March 6A

Launch pad: Launch Complex 9A

Location: Taiyuan Satellite Launch Center, People's Republic of China

...

Latest news about this satellite

News about space launch
Brightness of first Chinese broadband constellation satellites alarms astronomers

The first satellites of a Chinese broadband constellation are significantly brighter than those of Western systems, posing a new challenge for astronomers.

News about space launch
Chinese rocket stage breaks up into cloud of more than 700 pieces of space debris

HELSINKI — A Chinese Long March 6A rocket’s upper stage has fragmented into a cloud of over 700 pieces of space debris, adding to concerns about long-term orbital safety. China […]

News about space launch
China's Thousand Sails Megaconstellation Kicks Off with Dangerous Debris Field

China's Thousand Sails Megaconstellation Kicks Off with Dangerous Debris Field


Newsletter sign-up

Weekly statistics, charts and insights to help you stay on top of the space industry.